Home > Weather > Kathmandu > Past weeks

Flag for Nepal Weather for the Past 2 Weeks in Kathmandu, Nepal

Now
43 °F

Fog.


Feels Like: 43 °F
Forecast: 38 / 64 °F
Wind: 2 mph from North

Location: Kathmandu Airport

Current Time: Feb 7, 2016 at 8:11:35 AM

Latest Report: Feb 7, 2016 at 7:05 AM


Visibility: 0 mi

Pressure: 30.15 "Hg (25.70 "Hg at 1305m altitude)

Humidity: 100%

Dew point: 43 °F

Location of KathmanduLocation

Historic Weather in Kathmandu — Graph

°F

Kathmandu Temperature Yesterday

Maximum temperature yesterday: 64 °F (at 1:05 PM)
Minimum temperature yesterday: 43 °F (at 5:35 AM)
Average temperature yesterday: 54 °F

High & Low Weather Summary for the Past Weeks

 TemperatureHumidityPressure
High66 °F (Feb 1, 12:35 PM)100% (Jan 23, 6:05 AM)30.39 "Hg (Jan 23, 6:05 AM)
Low36 °F (Jan 23, 6:05 AM)26% (Feb 1, 1:05 PM)29.95 "Hg (Jan 27, 2:35 PM)
Average51 °F72%30.08 "Hg
* Reported Jan 23 6:05 AM — Feb 7 6:35 AM, Kathmandu, Weather by CustomWeather, © 2016

Note: Actual official high and low records may vary slightly from our data, if they occured in-between our weather recording intervals... More about our weather records

Advertising

Kathmandu Weather History for the Previous 24 Hours

 ConditionsComfort  
Time TempWeatherWind HumidityBarometerVisibility
6:35 AM
Sun, Feb 7
41 °FFog.6 mph100%30.12 "Hg0 mi
6:05 AM41 °FFog.No wind93%30.12 "Hg0 mi
5:35 AM41 °FFog.No wind100%30.09 "Hg1 mi
3:35 AM45 °FFog.No wind100%30.09 "Hg1 mi
2:35 AM46 °FFog.No wind93%30.12 "Hg1 mi
1:35 AM48 °FFog.No wind76%30.12 "Hg1 mi
12:35 AM48 °FFog.No wind94%30.12 "Hg1 mi
12:05 AM48 °FFog.No wind94%30.12 "Hg1 mi
11:35 PM
Sat, Feb 6
48 °FFog.3 mph94%30.12 "Hg2 mi
11:05 PM50 °FFog.5 mph88%30.12 "Hg2 mi
10:35 PM50 °FFog.3 mph94%30.12 "Hg2 mi
10:05 PM52 °FFog.2 mph88%30.12 "Hg2 mi
9:35 PM52 °FFog.3 mph88%30.12 "Hg2 mi
9:05 PM52 °FFog.3 mph88%30.09 "Hg2 mi
8:35 PM55 °FFog.No wind77%30.09 "Hg2 mi
8:05 PM55 °FFog.No wind77%30.09 "Hg2 mi
7:35 PM55 °FFog.3 mph77%30.09 "Hg2 mi
7:05 PM55 °FFog.3 mph77%30.07 "Hg2 mi
6:35 PM57 °FFog.5 mph72%30.07 "Hg2 mi
6:05 PM57 °FFog.5 mph72%30.07 "Hg2 mi
5:35 PM59 °FBroken clouds.5 mph63%30.07 "Hg2 mi
5:05 PM59 °FBroken clouds.6 mph68%30.04 "HgN/A
4:35 PM61 °FPartly sunny.6 mph63%30.04 "Hg2 mi
4:05 PM63 °FPartly sunny.6 mph59%30.04 "Hg3 mi
3:35 PM64 °FPartly sunny.7 mph46%30.04 "Hg4 mi
3:05 PM64 °FPartly sunny.8 mph46%30.07 "Hg2 mi
2:35 PM64 °FPartly sunny.3 mph52%30.07 "Hg2 mi
2:05 PM64 °FPartly sunny.3 mph56%30.07 "Hg2 mi
1:35 PM64 °FPartly sunny.3 mph52%30.07 "Hg2 mi
1:05 PM64 °FPartly sunny.2 mph56%30.09 "Hg2 mi
12:35 PM63 °FPartly sunny.2 mph59%30.12 "Hg2 mi
12:05 PM63 °FPartly sunny.3 mph59%30.12 "Hg2 mi
11:35 AM61 °FPartly sunny.5 mph63%30.12 "Hg1 mi
11:05 AM59 °FPartly sunny.3 mph68%30.15 "Hg1 mi
10:35 AM59 °FFog.3 mph68%30.15 "Hg1 mi
10:05 AM55 °FFog.No wind72%30.15 "Hg1 mi
9:35 AM52 °FFog.No wind82%30.15 "Hg1 mi
9:05 AM50 °FFog.2 mph88%30.12 "Hg1 mi
8:35 AM46 °FFog.2 mph93%30.12 "Hg1 mi
8:05 AM45 °FFog.No wind93%30.09 "Hg1 mi
Weather by CustomWeather, © 2016

See weather overviewHow to use our weather pages